Погода в Падуне

Поиск расширенной информации на нашем сайте:

Полезная информация:

Новости сайта



02.01.2020
Опубликован Долгосрочный прогноз погоды по городам России и ближнего зарубежья на январь 2020 года.
Карты: Прогноз на январь и февраль 2020 года, Сравнение прогнозируемой аномалии приземной температуры воздуха на январь 2020 года по разным моделям.




Погода в Падуне - сегодня

Время (UTC), дата Ветер
(°,м/с) 
Видим.   Явления Облачность Т
(°С)
Тd
(°С)
f(%) Тe
(°С)
Pmin
(гПа)
dP
(гПа)
Po
(мм)
O2
(г/м3)
Тmin Tmax R s Состояние
почвы
15 29.11.20 210 (ЮЗ) 2-6  20000 м    ясно 
-2.5 -4.4 87 -4  1023.5  -0.7  762  310           
18 29.11.20 230 (ЮЗ) 1-4  20000 м    8/8 300 м 
[St]
-2.9 -4.5 89 -2  1022.6  -0.9  761  310    -1.5       
21 29.11.20 210 (ЮЗ) 2-7  20000 м    н/о 
-1.2 -3.5 84 -2  1021.4  -1.2  760  308           
00 30.11.20 220 (ЮЗ) 2-5  20000 м    н/о 
-0.8 -3.1 84 -2  1020.6  -0.8  759  307           
03 30.11.20 220 (ЮЗ) 2-5  20000 м    н/о 
-0.8 -3.1 84 -2  1018.8  -1.7  758  307  -4.1         
06 30.11.20 210 (ЮЗ) 2-6  20000 м    10/10 300 м 
[Sc]
-0.3 -2.5 85 -1  1017.5  -1.3  757  306  -2.7      равномерный
сухой снег
100% 
09 30.11.20 210 (ЮЗ) 1-5  20000 м    10/10 600 м 
[Sc]
-0.2 -2.9 82 1017  -0.5  757  306           
12 30.11.20 200 (Ю) 2-6  20000 м    10/10 600 м 
[Sc]
-1.3 -3.6 84 -2  1015.5  -1.5  756  306           
15 30.11.20 220 (ЮЗ) 2-5  20000 м    10/10 1000 м 
[Sc]
-1.1 -4.8 76 -2  1013.6  -1.9  754  306           
18 30.11.20 190 (Ю) 2-5  50000 м    8/8 1000 м 
[Sc]
-1.5 -5 77 -2  1012.4  -1.2  753  306    -0.2       
21 30.11.20 190 (Ю) 2-6  20000 м    н/о 
-2.6 -5.1 83 -4  1010.8  -1.6  752  307           
00 01.12.20 200 (Ю) 3-7  20000 м    н/о 
-1.2 -3.9 82 -3  1009.3  -1.5  751  304           
03 01.12.20 200 (Ю) 2-7  20000 м    н/о 
-1.1 -3.8 82 -2  1008.2  -1.1  750  304  -2.6         
06 01.12.20 200 (Ю) 2-5  20000 м    9/9 300 м 
[St]
-0.9 -3.3 84 -2  1007.1  -1.1  749  303  -2.6      равномерный
сухой снег
100% 
09 01.12.20 220 (ЮЗ) 1-4  10 км  слаб. ливневой снег  10/10 600 м кучево-дожд. 
[Cb cap]
-0.5 -2.8 84 1006.8  -0.2  749  303           
12 01.12.20 220 (ЮЗ) 2-6  10 км  слаб. ливневой снег  10/10 600 м кучево-дожд. 
[Cb cap]
-0.5 -1.9 90 -1  1006.6  -0.2  749  303           
15 01.12.20 тихо ()   4000 м  слаб. ливневой снег  10/10 600 м кучево-дожд. 
[Cb cap]
-0.7 -1.1 97 -1  1008.3  1.6  750  303         
21 01.12.20 тихо () -1  16000 м    н/о 
-3.1 -3.4 98 -3  1014.8  3.1  755  308           
00 02.12.20 280 (З) 1-3  13000 м    н/о 
-4.3 -4.7 97 -4  1017.8  757  311           
03 02.12.20 тихо ()   14000 м    н/о 
-10.1 -10.8 95 -10  1018.8  0.8  758  318  -10.2    0.5     
06 02.12.20 тихо ()   20000 м    8/0 средняя, верхняя 
[Ac trans|Ci fib]
-13.2 -14.3 91 -13  1019  0.1  758  322  -13.2    0.0  11  равномерный
сухой снег
100% 
09 02.12.20 тихо () -1  20000 м    8/5 300 м верхняя 
[St|Ci fib]
-12.8 -13.9 91 -13  1017.6  -1.4  757  321           
12 02.12.20 210 (ЮЗ) 1-4  20000 м    9/0 средняя, верхняя 
[Ac lent|Ci fib]
-4 -4.4 97 -4  1015.3  -2  755  309           
15 02.12.20 220 (ЮЗ) 2-7  20000 м    10/0 средняя 
[Ac und]
-2.3 -4.2 87 -3  1013.8  -1.5  754  307           
18 02.12.20 210 (ЮЗ) 2-8  20000 м    9/8 600 м средняя 
[Sc|Ac trans]
-0.9 -2.8 87 -2  1013.6  -0.1  754  305    -0.8       
Время (UTC), дата Ветер
(°,м/с) 
Видим.   Явления Облачность Т
(°С)
Тd
(°С)
f(%) Тe
(°С)
Pmin
(гПа)
dP
(гПа)
Po
(мм)
O2
(г/м3)
Тmin Tmax R s Состояние
почвы

Для получения пояснительной информации подведите курсор к названию столбца.

ПОГОДА в Падуне - архив

Всё, что Вы хотите узнать о погоде в Падуне - удобно и подробно!

Выберите нужную дату (начиная с 1 января 2019* года) и нажмите кнопку "Найти".
Будут отображены архивные сводки погоды по пункту Падун, начиная с указанной даты.


Отображать данные в формате CSV (для использования в таблицах Excel)


Внимание! Наш архив погоды предназначен исключительно для личного некоммерческого использования в познавательных целях. Если Вам необходимы официальные справки о состоянии погоды (для производственных, юридических, коммерческих и т.п. целей), обращайтесь в органы Росгидромета.

*Примечание: данная дата относится к архиву по метеостанциям СССР (Россия, СНГ, Балтия).
Архив по метеостанциям Зарубежной Европы и Азии (кроме Китая) хранится 10 дней, по другим регионам земного шара (Китай, Африка, Америка, Австралия, Океания) - 1 день.

Падун - район местоположения метеостанции


Название, широта, долгота, высота метеостанции:
Падун 68.6°ш. 31.9°д. 63 м над ур. моря [Российская Федерация]

Дополнительная информация

В oтличие oт бoльшинства пoгoдных сайтoв мы публикуем пoдрoбную метеoинфoрмацию в детальнoм прoфессиoнальнoм фoрмате.

Характеристики температуры и влажнoсти вoздуха измеряются на высoте 2 м в тени вдали oт зданий и деревьев.
Скoрoсть ветра измеряется на высoте 10 м (на урoвне рoста челoвека скoрoсть ветра ниже в 1.5-2 раза). Если метеoстанция нахoдится в гoрoде или в лесу, тo скoрoсть ветра занижена на 2-4 м/с пo сравнению с oткрытым местoм. Скoрoсть ветра над акватoриями крупных рек и oзёр, а также на вершинах хoлмoв на 2-5 м/с выше, чем в oбычных услoвиях.
Атмoсфернoе давление в разных тoчках местнoсти мoжет значительнo oтличаться oт давления на метеoстанции, в зависимoсти oт услoвий рельефа (при пoдъёме на 10 м давление пoнижается примернo на 1 мм рт.ст.).